,,PA_Meas_PMT16A,,PR_Meas_QMR101_102,,RH_Meas_QMH101,,SR_Meas_QMS101,,TA_Meas_QMH101,,GenWind,,GenWind,
time,status,PA,status,PR,status,RH,status,SR,status,TA,status,DirAvg,status,SpdAvg,
2011-12-22, 00:00:04,VALID,915.939,VALID,0,VALID,95.468,VALID,0,VALID,20.8535,VALID,30,VALID,0.601172,
2011-12-22, 00:01:04,VALID,915.959,VALID,0,VALID,95.3461,VALID,0,VALID,20.8535,VALID,30,VALID,0.649609,
2011-12-22, 00:02:04,VALID,915.979,VALID,0,VALID,95.1631,VALID,0,VALID,20.8129,VALID,30,VALID,0.669922,
2011-12-22, 00:03:04,VALID,915.974,VALID,0,VALID,94.9344,VALID,0,VALID,20.8324,VALID,30,VALID,0.66875,
2011-12-22, 00:04:04,VALID,915.972,VALID,0,VALID,94.8277,VALID,0,VALID,20.8714,VALID,30,VALID,0.803125,
2011-12-22, 00:05:04,VALID,915.994,VALID,0,VALID,94.6447,VALID,0,VALID,20.8535,VALID,30,VALID,1.13945,
2011-12-22, 00:06:04,VALID,915.936,VALID,0,VALID,94.3703,VALID,0,VALID,20.873,VALID,30,VALID,0.783203,
2011-12-22, 00:07:04,VALID,915.934,VALID,0,VALID,94.1263,VALID,0,VALID,20.8519,VALID,30,VALID,0.429297,
2011-12-22, 00:08:04,VALID,915.919,VALID,0,VALID,93.7985,VALID,0,VALID,20.912,VALID,30,VALID,0.383984,
2011-12-22, 00:09:04,VALID,915.893,VALID,0,VALID,93.5393,VALID,0,VALID,20.912,VALID,30,VALID,0.494531,
2011-12-22, 00:10:04,VALID,915.87,VALID,0,VALID,93.2191,VALID,0,VALID,20.9316,VALID,30,VALID,0.463672,
2011-12-22, 00:11:04,VALID,915.873,VALID,0,VALID,93.0819,VALID,0,VALID,20.9511,VALID,30,VALID,0.541016,
2011-12-22, 00:12:04,VALID,915.849,VALID,0,VALID,92.533,VALID,0,VALID,20.9722,VALID,30,VALID,0.829297,
2011-12-22, 00:13:04,VALID,915.856,VALID,0,VALID,92.4873,VALID,0,VALID,20.9495,VALID,30,VALID,0.669922,
2011-12-22, 00:14:04,VALID,915.874,VALID,0,VALID,92.4644,VALID,0,VALID,20.9511,VALID,30,VALID,0.378516,
2011-12-22, 00:15:04,VALID,915.84,VALID,0,VALID,92.3119,VALID,0,VALID,20.9105,VALID,30,VALID,0.715234,
2011-12-22, 00:16:04,VALID,915.85,VALID,0,VALID,92.1214,VALID,0,VALID,20.9511,VALID,30,VALID,0.0328125,
2011-12-22, 00:17:04,VALID,915.855,VALID,0,VALID,92.7541,VALID,0,VALID,20.9901,VALID,30,VALID,0.292969,
2011-12-22, 00:18:04,VALID,915.824,VALID,0,VALID,93.1886,VALID,0,VALID,21.0096,VALID,30,VALID,0.0351563,
2011-12-22, 00:19:04,VALID,915.832,VALID,0,VALID,93.3792,VALID,0,VALID,21.0291,VALID,30,VALID,0,
2011-12-22, 00:20:04,VALID,915.816,VALID,0,VALID,93.7299,VALID,0,VALID,21.0486,VALID,30,VALID,0.00195313,
2011-12-22, 00:21:04,VALID,915.804,VALID,0,VALID,94.1568,VALID,0,VALID,21.0681,VALID,30,VALID,0,
2011-12-22, 00:22:04,VALID,915.779,VALID,0,VALID,94.4846,VALID,0,VALID,21.0876,VALID,30,VALID,0,
2011-12-22, 00:23:04,VALID,915.778,VALID,0,VALID,94.5456,VALID,0,VALID,21.1478,VALID,30,VALID,0.0863281,
2011-12-22, 00:24:04,VALID,915.754,VALID,0,VALID,94.6218,VALID,0,VALID,21.1266,VALID,30,VALID,0.0441406,
2011-12-22, 00:25:04,VALID,915.759,VALID,0,VALID,94.4694,VALID,0,VALID,21.0876,VALID,30,VALID,0.258594,
2011-12-22, 00:26:04,VALID,915.741,VALID,0,VALID,94.5609,VALID,0,VALID,21.0681,VALID,30,VALID,0.120703,
2011-12-22, 00:27:04,VALID,915.76,VALID,0,VALID,94.5837,VALID,0,VALID,21.0275,VALID,30,VALID,0,
2011-12-22, 00:28:04,VALID,915.751,VALID,0,VALID,94.6447,VALID,0,VALID,21.0486,VALID,30,VALID,0.186719,
2011-12-22, 00:29:04,VALID,915.727,VALID,0,VALID,94.7438,VALID,0,VALID,21.008,VALID,30,VALID,0,
2011-12-22, 00:30:04,VALID,915.682,VALID,0,VALID,94.7819,VALID,0,VALID,21.0096,VALID,30,VALID,0.102344,
2011-12-22, 00:31:04,VALID,915.68,VALID,0,VALID,94.8353,VALID,0,VALID,21.0096,VALID,30,VALID,0.261328,
2011-12-22, 00:32:04,VALID,915.65,VALID,0,VALID,94.7667,VALID,0,VALID,20.9706,VALID,30,VALID,0.33125,
2011-12-22, 00:33:04,VALID,915.644,VALID,0,VALID,94.7743,VALID,0,VALID,20.9511,VALID,30,VALID,0,
2011-12-22, 00:34:04,VALID,915.636,VALID,0,VALID,94.6142,VALID,0,VALID,20.912,VALID,30,VALID,0,
2011-12-22, 00:35:04,VALID,915.641,VALID,0,VALID,94.4541,VALID,0,VALID,20.9527,VALID,30,VALID,0,
2011-12-22, 00:36:04,VALID,915.627,VALID,0,VALID,94.3703,VALID,0,VALID,20.9511,VALID,30,VALID,0,
2011-12-22, 00:37:04,VALID,915.662,VALID,0,VALID,94.233,VALID,0,VALID,20.9511,VALID,30,VALID,0,
2011-12-22, 00:38:04,VALID,915.646,VALID,0,VALID,94.1949,VALID,0,VALID,20.9722,VALID,30,VALID,0,
2011-12-22, 00:39:04,VALID,915.649,VALID,0,VALID,94.1721,VALID,0,VALID,20.9706,VALID,30,VALID,0,
2011-12-22, 00:40:04,VALID,915.661,VALID,0,VALID,94.1949,VALID,0,VALID,20.9917,VALID,30,VALID,0,
2011-12-22, 00:41:04,VALID,915.638,VALID,0,VALID,94.2712,VALID,0,VALID,20.9706,VALID,30,VALID,0,
2011-12-22, 00:42:04,VALID,915.66,VALID,0,VALID,94.2559,VALID,0,VALID,20.9706,VALID,30,VALID,0,
2011-12-22, 00:43:04,VALID,915.643,VALID,0,VALID,94.1339,VALID,0,VALID,20.9706,VALID,30,VALID,0,
2011-12-22, 00:44:04,VALID,915.64,VALID,0,VALID,94.0196,VALID,0,VALID,20.9527,VALID,30,VALID,0,
2011-12-22, 00:45:04,VALID,915.623,VALID,0,VALID,94.0196,VALID,0,VALID,20.9316,VALID,30,VALID,0,
2011-12-22, 00:46:04,VALID,915.595,VALID,0,VALID,94.0577,VALID,0,VALID,20.9331,VALID,30,VALID,0,
2011-12-22, 00:47:04,VALID,915.619,VALID,0,VALID,94.0272,VALID,0,VALID,20.9316,VALID,30,VALID,0,
2011-12-22, 00:48:04,VALID,915.617,VALID,0,VALID,93.9891,VALID,0,VALID,20.9706,VALID,30,VALID,0,
2011-12-22, 00:49:04,VALID,915.611,VALID,0,VALID,93.9052,VALID,0,VALID,21.0096,VALID,30,VALID,0,
2011-12-22, 00:50:04,VALID,915.614,VALID,0,VALID,93.6537,VALID,0,VALID,20.9511,VALID,30,VALID,0,
2011-12-22, 00:51:04,VALID,915.576,VALID,0,VALID,93.7985,VALID,0,VALID,20.8925,VALID,30,VALID,0,
2011-12-22, 00:52:04,VALID,915.583,VALID,0,VALID,93.8824,VALID,0,VALID,20.8535,VALID,30,VALID,0,
2011-12-22, 00:53:04,VALID,915.574,VALID,0,VALID,93.4326,VALID,0,VALID,20.8145,VALID,30,VALID,0,
2011-12-22, 00:54:04,VALID,915.543,VALID,0,VALID,93.3868,VALID,0,VALID,20.8145,VALID,30,VALID,0,
2011-12-22, 00:55:04,VALID,915.527,VALID,0,VALID,93.4021,VALID,0,VALID,20.795,VALID,30,VALID,0,
2011-12-22, 00:56:04,VALID,915.518,VALID,0,VALID,93.3182,VALID,0,VALID,20.7755,VALID,30,VALID,0,
2011-12-22, 00:57:04,VALID,915.515,VALID,0,VALID,93.3716,VALID,0,VALID,20.7755,VALID,30,VALID,0,
2011-12-22, 00:58:04,VALID,915.487,VALID,0,VALID,93.2191,VALID,0,VALID,20.756,VALID,30,VALID,0,
2011-12-22, 00:59:04,VALID,915.485,VALID,0,VALID,92.9981,VALID,0,VALID,20.756,VALID,30,VALID,0,
2011-12-22, 01:00:04,VALID,915.475,VALID,0,VALID,92.5711,VALID,0,VALID,20.756,VALID,30,VALID,0,
2011-12-22, 01:01:04,VALID,915.449,VALID,0,VALID,92.8532,VALID,0,VALID,20.7755,VALID,30,VALID,0,
2011-12-22, 01:02:04,VALID,915.476,VALID,0,VALID,93.2649,VALID,0,VALID,20.795,VALID,30,VALID,0,
2011-12-22, 01:03:04,VALID,915.432,VALID,0,VALID,93.6308,VALID,0,VALID,20.795,VALID,30,VALID,0,
2011-12-22, 01:04:04,VALID,915.426,VALID,0,VALID,93.6994,VALID,0,VALID,20.7755,VALID,30,VALID,0,
2011-12-22, 01:05:04,VALID,915.427,VALID,0,VALID,93.7528,VALID,0,VALID,20.7544,VALID,30,VALID,0,
2011-12-22, 01:06:04,VALID,915.421,VALID,0,VALID,93.9662,VALID,0,VALID,20.7544,VALID,30,VALID,0,
2011-12-22, 01:07:04,VALID,915.437,VALID,0,VALID,93.5851,VALID,0,VALID,20.7154,VALID,30,VALID,0,
2011-12-22, 01:08:04,VALID,915.45,VALID,0,VALID,93.0743,VALID,0,VALID,20.7154,VALID,30,VALID,0,
2011-12-22, 01:09:04,VALID,915.459,VALID,0,VALID,92.8227,VALID,0,VALID,20.7544,VALID,30,VALID,0,
2011-12-22, 01:10:04,VALID,915.44,VALID,0,VALID,92.6397,VALID,0,VALID,20.7544,VALID,30,VALID,0,
2011-12-22, 01:11:04,VALID,915.448,VALID,0,VALID,92.5178,VALID,0,VALID,20.7739,VALID,30,VALID,0,
2011-12-22, 01:12:04,VALID,915.453,VALID,0,VALID,92.3501,VALID,0,VALID,20.7544,VALID,30,VALID,0,
2011-12-22, 01:13:04,VALID,915.427,VALID,0,VALID,92.472,VALID,0,VALID,20.7739,VALID,30,VALID,0,
2011-12-22, 01:14:04,VALID,915.431,VALID,0,VALID,92.3653,VALID,0,VALID,20.7934,VALID,30,VALID,0,
2011-12-22, 01:15:04,VALID,915.404,VALID,0,VALID,91.6868,VALID,0,VALID,20.7934,VALID,30,VALID,0,
2011-12-22, 01:16:04,VALID,915.382,VALID,0,VALID,91.3361,VALID,0,VALID,20.8129,VALID,30,VALID,0,
2011-12-22, 01:17:04,VALID,915.359,VALID,0,VALID,91.2752,VALID,0,VALID,20.8519,VALID,30,VALID,0,
2011-12-22, 01:18:04,VALID,915.346,VALID,0,VALID,91.0083,VALID,0,VALID,20.8519,VALID,30,VALID,0,
2011-12-22, 01:19:04,VALID,915.342,VALID,0,VALID,91.5953,VALID,0,VALID,20.891,VALID,30,VALID,0,
2011-12-22, 01:20:04,VALID,915.349,VALID,0,VALID,91.2599,VALID,0,VALID,20.873,VALID,30,VALID,0,
2011-12-22, 01:21:04,VALID,915.31,VALID,0,VALID,91.5953,VALID,0,VALID,20.8925,VALID,30,VALID,0,
2011-12-22, 01:22:04,VALID,915.319,VALID,0,VALID,91.5877,VALID,0,VALID,20.8535,VALID,30,VALID,0,
2011-12-22, 01:23:04,VALID,915.263,VALID,0,VALID,91.9079,VALID,0,VALID,20.834,VALID,30,VALID,0,
2011-12-22, 01:24:04,VALID,915.248,VALID,0,VALID,92.2052,VALID,0,VALID,20.7966,VALID,30,VALID,0,
2011-12-22, 01:25:04,VALID,915.222,VALID,0,VALID,92.2586,VALID,0,VALID,20.717,VALID,30,VALID,0,
2011-12-22, 01:26:04,VALID,915.185,VALID,0,VALID,92.5788,VALID,0,VALID,20.639,VALID,30,VALID,0,
2011-12-22, 01:27:04,VALID,915.162,VALID,0,VALID,92.8761,VALID,0,VALID,20.5999,VALID,30,VALID,0,
2011-12-22, 01:28:04,VALID,915.128,VALID,0,VALID,93.1276,VALID,0,VALID,20.5414,VALID,30,VALID,0,
2011-12-22, 01:29:04,VALID,915.102,VALID,0,VALID,93.3259,VALID,0,VALID,20.4829,VALID,30,VALID,0,
2011-12-22, 01:30:04,VALID,915.074,VALID,0,VALID,93.5164,VALID,0,VALID,20.4829,VALID,30,VALID,0,
2011-12-22, 01:31:04,VALID,915.068,VALID,0,VALID,93.6079,VALID,0,VALID,20.4634,VALID,30,VALID,0,
2011-12-22, 01:32:04,VALID,915.033,VALID,0,VALID,93.7833,VALID,0,VALID,20.4829,VALID,30,VALID,0,
2011-12-22, 01:33:04,VALID,914.984,VALID,0,VALID,93.7604,VALID,0,VALID,20.4829,VALID,30,VALID,0,
2011-12-22, 01:34:04,VALID,914.983,VALID,0,VALID,93.8747,VALID,0,VALID,20.5024,VALID,30,VALID,0,
2011-12-22, 01:35:04,VALID,914.963,VALID,0,VALID,93.9052,VALID,0,VALID,20.5009,VALID,30,VALID,0,
2011-12-22, 01:36:04,VALID,914.956,VALID,0,VALID,93.9434,VALID,0,VALID,20.5009,VALID,30,VALID,0,
2011-12-22, 01:37:04,VALID,914.927,VALID,0,VALID,94.0272,VALID,0,VALID,20.5009,VALID,30,VALID,0,
2011-12-22, 01:38:04,VALID,914.904,VALID,0,VALID,94.0806,VALID,0,VALID,20.5204,VALID,30,VALID,0,
2011-12-22, 01:39:04,VALID,914.865,VALID,0,VALID,94.1873,VALID,0.107441,VALID,20.5399,VALID,30,VALID,0,
2011-12-22, 01:40:04,VALID,914.859,VALID,0,VALID,94.2407,VALID,0,VALID,20.5399,VALID,30,VALID,0,
2011-12-22, 01:41:04,VALID,914.86,VALID,0,VALID,94.1949,VALID,0,VALID,20.5594,VALID,30,VALID,0,
2011-12-22, 01:42:04,VALID,914.806,VALID,0,VALID,94.073,VALID,0,VALID,20.5804,VALID,30,VALID,0,
2011-12-22, 01:43:04,VALID,914.813,VALID,0,VALID,94.012,VALID,0,VALID,20.5789,VALID,30,VALID,0,
2011-12-22, 01:44:04,VALID,914.818,VALID,0,VALID,93.9586,VALID,0,VALID,20.5594,VALID,30,VALID,0,
2011-12-22, 01:45:04,VALID,914.811,VALID,0,VALID,93.89,VALID,0,VALID,20.5594,VALID,30,VALID,0,
2011-12-22, 01:46:04,VALID,914.8,VALID,0,VALID,93.8747,VALID,0,VALID,20.5399,VALID,30,VALID,0,
2011-12-22, 01:47:04,VALID,914.814,VALID,0,VALID,93.9281,VALID,0,VALID,20.5609,VALID,30,VALID,0,
2011-12-22, 01:48:04,VALID,914.809,VALID,0,VALID,94.0196,VALID,0,VALID,20.5204,VALID,30,VALID,0,
2011-12-22, 01:49:04,VALID,914.807,VALID,0,VALID,94.0348,VALID,0,VALID,20.5204,VALID,30,VALID,0,
2011-12-22, 01:50:04,VALID,914.794,VALID,0,VALID,94.0043,VALID,0,VALID,20.5235,VALID,30,VALID,0,
2011-12-22, 01:51:04,VALID,914.795,VALID,0,VALID,93.9205,VALID,0,VALID,20.4634,VALID,30,VALID,0,
2011-12-22, 01:52:04,VALID,914.779,VALID,0,VALID,94.012,VALID,0,VALID,20.4244,VALID,30,VALID,0,
2011-12-22, 01:53:04,VALID,914.781,VALID,0,VALID,94.2559,VALID,0,VALID,20.4259,VALID,30,VALID,0,
2011-12-22, 01:54:04,VALID,914.752,VALID,0,VALID,94.5532,VALID,0,VALID,20.4049,VALID,30,VALID,0,
2011-12-22, 01:55:04,VALID,914.771,VALID,0,VALID,94.7362,VALID,0,VALID,20.4049,VALID,30,VALID,0,
2011-12-22, 01:56:04,VALID,914.781,VALID,0,VALID,94.9115,VALID,0,VALID,20.4049,VALID,30,VALID,0,
2011-12-22, 01:57:04,VALID,914.76,VALID,0,VALID,95.0564,VALID,0,VALID,20.4244,VALID,30,VALID,0,
2011-12-22, 01:58:04,VALID,914.776,VALID,0,VALID,95.1097,VALID,0,VALID,20.4454,VALID,30,VALID,0,
2011-12-22, 01:59:04,VALID,914.75,VALID,0,VALID,95.1707,VALID,0,VALID,20.4454,VALID,30,VALID,0,
2011-12-22, 02:00:04,VALID,914.746,VALID,0,VALID,95.1936,VALID,0,VALID,20.4439,VALID,30,VALID,0,
2011-12-22, 02:01:04,VALID,914.691,VALID,0,VALID,95.2088,VALID,0,VALID,20.4634,VALID,30,VALID,0,
2011-12-22, 02:02:04,VALID,914.723,VALID,0,VALID,95.2927,VALID,0,VALID,20.504,VALID,30,VALID,0,
2011-12-22, 02:03:04,VALID,914.713,VALID,0,VALID,95.3842,VALID,0,VALID,20.5024,VALID,30,VALID,0,
2011-12-22, 02:04:04,VALID,914.732,VALID,0,VALID,95.4299,VALID,0,VALID,20.5219,VALID,30,VALID,0,
2011-12-22, 02:05:04,VALID,914.693,VALID,0,VALID,95.4757,VALID,0,VALID,20.5594,VALID,30,VALID,0,
2011-12-22, 02:06:04,VALID,914.7,VALID,0,VALID,95.5062,VALID,0,VALID,20.5999,VALID,30,VALID,0,
2011-12-22, 02:07:04,VALID,914.673,VALID,0,VALID,95.5138,VALID,0,VALID,20.6194,VALID,30,VALID,0,
2011-12-22, 02:08:04,VALID,914.68,VALID,0,VALID,95.529,VALID,0,VALID,20.6374,VALID,30,VALID,0,
2011-12-22, 02:09:04,VALID,914.667,VALID,0,VALID,95.5367,VALID,0,VALID,20.6569,VALID,30,VALID,0,
2011-12-22, 02:10:04,VALID,914.673,VALID,0,VALID,95.5062,VALID,0,VALID,20.6764,VALID,30,VALID,0,
2011-12-22, 02:11:04,VALID,914.662,VALID,0,VALID,95.4299,VALID,0,VALID,20.6959,VALID,30,VALID,0,
2011-12-22, 02:12:04,VALID,914.636,VALID,0,VALID,95.3689,VALID,0,VALID,20.6959,VALID,30,VALID,0,
2011-12-22, 02:13:04,VALID,914.618,VALID,0,VALID,95.2622,VALID,0,VALID,20.717,VALID,30,VALID,0,
2011-12-22, 02:14:04,VALID,914.613,VALID,0,VALID,95.2775,VALID,0,VALID,20.6959,VALID,30,VALID,0,
2011-12-22, 02:15:04,VALID,914.606,VALID,0,VALID,95.2851,VALID,0,VALID,20.6959,VALID,30,VALID,0,
2011-12-22, 02:16:04,VALID,914.599,VALID,0,VALID,95.2622,VALID,0,VALID,20.6959,VALID,30,VALID,0,
2011-12-22, 02:17:04,VALID,914.568,VALID,0,VALID,95.1402,VALID,0.107441,VALID,20.6764,VALID,30,VALID,0,
2011-12-22, 02:18:04,VALID,914.592,VALID,0,VALID,95.0869,VALID,0,VALID,20.6569,VALID,30,VALID,0,
2011-12-22, 02:19:04,VALID,914.605,VALID,0,VALID,94.9725,VALID,0,VALID,20.6764,VALID,30,VALID,0,
2011-12-22, 02:20:04,VALID,914.623,VALID,0,VALID,94.9192,VALID,0,VALID,20.678,VALID,30,VALID,0,
2011-12-22, 02:21:04,VALID,914.605,VALID,0,VALID,94.8734,VALID,0,VALID,20.6569,VALID,30,VALID,0,
2011-12-22, 02:22:04,VALID,914.579,VALID,0,VALID,94.8582,VALID,0.107441,VALID,20.6569,VALID,30,VALID,0,
2011-12-22, 02:23:04,VALID,914.565,VALID,0,VALID,94.8505,VALID,0,VALID,20.6764,VALID,30,VALID,0,
2011-12-22, 02:24:04,VALID,914.587,VALID,0,VALID,94.7896,VALID,0.107441,VALID,20.6959,VALID,30,VALID,0,
2011-12-22, 02:25:04,VALID,914.573,VALID,0,VALID,94.7667,VALID,0,VALID,20.6959,VALID,30,VALID,0,
2011-12-22, 02:26:04,VALID,914.569,VALID,0,VALID,94.7438,VALID,0,VALID,20.7154,VALID,30,VALID,0,
2011-12-22, 02:27:04,VALID,914.526,VALID,0,VALID,94.82,VALID,0,VALID,20.6959,VALID,30,VALID,0,
2011-12-22, 02:28:04,VALID,914.518,VALID,0,VALID,94.881,VALID,0,VALID,20.7365,VALID,30,VALID,0,
2011-12-22, 02:29:04,VALID,914.504,VALID,0,VALID,94.9344,VALID,0,VALID,20.7349,VALID,30,VALID,0,
2011-12-22, 02:30:04,VALID,914.538,VALID,0,VALID,94.9725,VALID,0,VALID,20.7349,VALID,30,VALID,0,
2011-12-22, 02:31:04,VALID,914.502,VALID,0,VALID,95.003,VALID,0,VALID,20.7349,VALID,30,VALID,0,
2011-12-22, 02:32:04,VALID,914.481,VALID,0,VALID,95.0183,VALID,0.107441,VALID,20.7349,VALID,30,VALID,0,
2011-12-22, 02:33:04,VALID,914.477,VALID,0,VALID,95.0869,VALID,0,VALID,20.7154,VALID,30,VALID,0,
2011-12-22, 02:34:04,VALID,914.466,VALID,0,VALID,95.1479,VALID,0,VALID,20.6959,VALID,30,VALID,0,
2011-12-22, 02:35:04,VALID,914.503,VALID,0,VALID,95.2851,VALID,0.107441,VALID,20.6959,VALID,30,VALID,0,
2011-12-22, 02:36:04,VALID,914.497,VALID,0,VALID,95.3461,VALID,0,VALID,20.6764,VALID,30,VALID,0,
2011-12-22, 02:37:04,VALID,914.477,VALID,0,VALID,95.3994,VALID,0.107441,VALID,20.6764,VALID,30,VALID,0,
2011-12-22, 02:38:04,VALID,914.47,VALID,0,VALID,95.4909,VALID,0,VALID,20.6764,VALID,30,VALID,0,
2011-12-22, 02:39:04,VALID,914.449,VALID,0,VALID,95.5671,VALID,0.107441,VALID,20.6358,VALID,30,VALID,0,
2011-12-22, 02:40:04,VALID,914.453,VALID,0,VALID,95.6281,VALID,0.107441,VALID,20.6374,VALID,30,VALID,0,
2011-12-22, 02:41:04,VALID,914.437,VALID,0,VALID,95.7044,VALID,0,VALID,20.6179,VALID,30,VALID,0,
2011-12-22, 02:42:04,VALID,914.432,VALID,0,VALID,95.7654,VALID,0.107441,VALID,20.6179,VALID,30,VALID,0,
2011-12-22, 02:43:04,VALID,914.417,VALID,0,VALID,95.8187,VALID,0.107441,VALID,20.6179,VALID,30,VALID,0,
2011-12-22, 02:44:04,VALID,914.389,VALID,0,VALID,95.8492,VALID,0,VALID,20.6179,VALID,30,VALID,0,
2011-12-22, 02:45:04,VALID,914.39,VALID,0,VALID,95.8721,VALID,0.107441,VALID,20.6374,VALID,30,VALID,0,
2011-12-22, 02:46:04,VALID,914.355,VALID,0,VALID,95.9102,VALID,0,VALID,20.6374,VALID,30,VALID,0,
2011-12-22, 02:47:04,VALID,914.329,VALID,0,VALID,95.9102,VALID,0,VALID,20.6569,VALID,30,VALID,0,
2011-12-22, 02:48:04,VALID,914.33,VALID,0,VALID,95.9102,VALID,0,VALID,20.6374,VALID,30,VALID,0,
2011-12-22, 02:49:04,VALID,914.321,VALID,0,VALID,95.8873,VALID,0.107441,VALID,20.6374,VALID,30,VALID,0,
2011-12-22, 02:50:04,VALID,914.343,VALID,0,VALID,95.8873,VALID,0,VALID,20.5999,VALID,30,VALID,0,
2011-12-22, 02:51:04,VALID,914.323,VALID,0,VALID,95.9331,VALID,0,VALID,20.5804,VALID,30,VALID,0,
2011-12-22, 02:52:04,VALID,914.318,VALID,0,VALID,95.9712,VALID,0,VALID,20.5609,VALID,30,VALID,0,
2011-12-22, 02:53:04,VALID,914.306,VALID,0,VALID,96.0093,VALID,0,VALID,20.5414,VALID,30,VALID,0,
2011-12-22, 02:54:04,VALID,914.323,VALID,0,VALID,96.0474,VALID,0,VALID,20.5219,VALID,30,VALID,0,
2011-12-22, 02:55:04,VALID,914.344,VALID,0,VALID,96.1465,VALID,0,VALID,20.5219,VALID,30,VALID,0,
2011-12-22, 02:56:04,VALID,914.348,VALID,0,VALID,96.2228,VALID,0,VALID,20.5219,VALID,30,VALID,0,
2011-12-22, 02:57:04,VALID,914.348,VALID,0,VALID,96.2533,VALID,0,VALID,20.5219,VALID,30,VALID,0,
2011-12-22, 02:58:04,VALID,914.336,VALID,0,VALID,96.3371,VALID,0,VALID,20.5219,VALID,30,VALID,0,
2011-12-22, 02:59:04,VALID,914.338,VALID,0,VALID,96.3905,VALID,0,VALID,20.543,VALID,30,VALID,0.00820312,
2011-12-22, 03:00:04,VALID,914.347,VALID,0,VALID,96.4362,VALID,0,VALID,20.5414,VALID,30,VALID,1.15117,
2011-12-22, 03:01:04,VALID,914.352,VALID,0,VALID,96.5277,VALID,0,VALID,20.5414,VALID,30,VALID,1.09531,
2011-12-22, 03:02:04,VALID,914.304,VALID,0,VALID,96.5658,VALID,0,VALID,20.5625,VALID,96,VALID,1.26016,
2011-12-22, 03:03:04,VALID,914.305,VALID,0,VALID,96.6192,VALID,0,VALID,20.5399,VALID,96,VALID,1.27148,
2011-12-22, 03:04:04,VALID,914.261,VALID,0,VALID,96.6573,VALID,0,VALID,20.5804,VALID,96,VALID,0.429688,
2011-12-22, 03:05:04,VALID,914.236,VALID,0,VALID,96.6954,VALID,0,VALID,20.5804,VALID,96,VALID,0.521094,
2011-12-22, 03:06:04,VALID,914.273,VALID,0,VALID,96.7183,VALID,0,VALID,20.5609,VALID,104,VALID,1.52578,
2011-12-22, 03:07:04,VALID,914.239,VALID,0,VALID,96.7488,VALID,0,VALID,20.5609,VALID,95,VALID,0.483203,
2011-12-22, 03:08:04,VALID,914.211,VALID,0,VALID,96.7564,VALID,0,VALID,20.5609,VALID,95,VALID,1.10391,
2011-12-22, 03:09:04,VALID,914.194,VALID,0,VALID,96.8021,VALID,0,VALID,20.5414,VALID,95,VALID,0.720703,
2011-12-22, 03:10:04,VALID,914.165,VALID,0,VALID,96.8174,VALID,0,VALID,20.5399,VALID,95,VALID,0.413281,
2011-12-22, 03:11:04,VALID,914.153,VALID,0,VALID,96.825,VALID,0,VALID,20.5414,VALID,95,VALID,0.649609,
2011-12-22, 03:12:04,VALID,914.147,VALID,0,VALID,96.8631,VALID,0,VALID,20.5414,VALID,95,VALID,0.683203,
2011-12-22, 03:13:04,VALID,914.118,VALID,0,VALID,96.8784,VALID,0,VALID,20.5204,VALID,95,VALID,0.233203,
2011-12-22, 03:14:04,VALID,914.109,VALID,0,VALID,96.8936,VALID,0,VALID,20.5219,VALID,95,VALID,0.241016,
2011-12-22, 03:15:04,VALID,914.074,VALID,0,VALID,96.9241,VALID,0,VALID,20.5219,VALID,95,VALID,0,
2011-12-22, 03:16:04,VALID,914.108,VALID,0,VALID,96.9394,VALID,0,VALID,20.5009,VALID,95,VALID,0,
2011-12-22, 03:17:04,VALID,914.076,VALID,0,VALID,96.9546,VALID,0,VALID,20.5024,VALID,95,VALID,0,
2011-12-22, 03:18:04,VALID,914.088,VALID,0,VALID,96.9927,VALID,0,VALID,20.5219,VALID,95,VALID,0.0933594,
2011-12-22, 03:19:04,VALID,914.078,VALID,0,VALID,96.9927,VALID,0,VALID,20.5219,VALID,95,VALID,0,
2011-12-22, 03:20:04,VALID,914.07,VALID,0,VALID,97.0156,VALID,0,VALID,20.543,VALID,95,VALID,0,
2011-12-22, 03:21:04,VALID,914.073,VALID,0,VALID,97.0003,VALID,0,VALID,20.5219,VALID,95,VALID,0,
2011-12-22, 03:22:04,VALID,914.083,VALID,0,VALID,97.0308,VALID,0,VALID,20.5219,VALID,95,VALID,0,
2011-12-22, 03:23:04,VALID,914.014,VALID,0,VALID,97.0385,VALID,0,VALID,20.5024,VALID,95,VALID,0.459766,
2011-12-22, 03:24:04,VALID,914.052,VALID,0,VALID,97.0308,VALID,0,VALID,20.5024,VALID,95,VALID,0.303516,
2011-12-22, 03:25:04,VALID,914.052,VALID,0,VALID,97.0461,VALID,0,VALID,20.4829,VALID,95,VALID,0.549219,
2011-12-22, 03:26:04,VALID,914.04,VALID,0,VALID,97.0766,VALID,0,VALID,20.5024,VALID,95,VALID,0.464063,
2011-12-22, 03:27:04,VALID,914.039,VALID,0,VALID,97.0918,VALID,0,VALID,20.5024,VALID,95,VALID,0.608984,
2011-12-22, 03:28:04,VALID,914.017,VALID,0,VALID,97.0994,VALID,0,VALID,20.5024,VALID,95,VALID,0.460938,
2011-12-22, 03:29:04,VALID,914.033,VALID,0,VALID,97.1071,VALID,0,VALID,20.5219,VALID,95,VALID,0.1,
2011-12-22, 03:30:04,VALID,913.999,VALID,0,VALID,97.1147,VALID,0,VALID,20.5024,VALID,95,VALID,0.540234,
2011-12-22, 03:31:04,VALID,914.014,VALID,0,VALID,97.1147,VALID,0,VALID,20.5024,VALID,95,VALID,0.223047,
2011-12-22, 03:32:04,VALID,913.998,VALID,0,VALID,97.1147,VALID,0,VALID,20.4813,VALID,95,VALID,0.278906,
2011-12-22, 03:33:04,VALID,913.981,VALID,0,VALID,97.1071,VALID,0,VALID,20.4618,VALID,95,VALID,0.462109,
2011-12-22, 03:34:04,VALID,913.977,VALID,0,VALID,97.0994,VALID,0,VALID,20.4618,VALID,95,VALID,0.6625,
2011-12-22, 03:35:04,VALID,913.969,VALID,0,VALID,97.1071,VALID,0,VALID,20.4634,VALID,130,VALID,0.647266,
2011-12-22, 03:36:04,VALID,913.987,VALID,0,VALID,97.1528,VALID,0,VALID,20.504,VALID,149,VALID,0.386328,
2011-12-22, 03:37:04,VALID,913.959,VALID,0,VALID,97.1299,VALID,0,VALID,20.4829,VALID,149,VALID,0.79375,
2011-12-22, 03:38:04,VALID,913.966,VALID,0,VALID,97.1528,VALID,0,VALID,20.4829,VALID,149,VALID,0.611719,
2011-12-22, 03:39:04,VALID,913.973,VALID,0,VALID,97.1452,VALID,0,VALID,20.504,VALID,149,VALID,0.936719,
2011-12-22, 03:40:04,VALID,913.988,VALID,0,VALID,97.1757,VALID,0,VALID,20.4829,VALID,149,VALID,0.392578,
2011-12-22, 03:41:04,VALID,913.978,VALID,0,VALID,97.1757,VALID,0,VALID,20.4829,VALID,149,VALID,0.307813,
2011-12-22, 03:42:04,VALID,913.986,VALID,0,VALID,97.1986,VALID,0,VALID,20.5024,VALID,149,VALID,0.864844,
2011-12-22, 03:43:04,VALID,913.985,VALID,0,VALID,97.1986,VALID,0,VALID,20.5024,VALID,141,VALID,0.638281,
2011-12-22, 03:44:04,VALID,913.995,VALID,0,VALID,97.1909,VALID,0,VALID,20.5024,VALID,141,VALID,0.330078,
2011-12-22, 03:45:04,VALID,913.993,VALID,0,VALID,97.1757,VALID,0,VALID,20.4829,VALID,141,VALID,0.489844,
2011-12-22, 03:46:04,VALID,913.988,VALID,0,VALID,97.1909,VALID,0,VALID,20.4618,VALID,141,VALID,0.780859,
2011-12-22, 03:47:04,VALID,914.003,VALID,0,VALID,97.1909,VALID,0,VALID,20.5024,VALID,141,VALID,0.561328,
2011-12-22, 03:48:04,VALID,913.982,VALID,0,VALID,97.1757,VALID,0,VALID,20.4829,VALID,141,VALID,0.487891,
2011-12-22, 03:49:05,VALID,913.978,VALID,0,VALID,97.1833,VALID,0,VALID,20.5024,VALID,102,VALID,1.21289,
2011-12-22, 03:50:05,VALID,913.971,VALID,0,VALID,97.1681,VALID,0,VALID,20.4813,VALID,116,VALID,0.630469,
2011-12-22, 03:51:05,VALID,913.97,VALID,0,VALID,97.1528,VALID,0,VALID,20.4829,VALID,115,VALID,0.938672,
2011-12-22, 03:52:05,VALID,913.96,VALID,0,VALID,97.1528,VALID,0,VALID,20.4423,VALID,105,VALID,0.962891,
2011-12-22, 03:53:05,VALID,913.966,VALID,0,VALID,97.1681,VALID,0.107441,VALID,20.4634,VALID,99,VALID,0.723437,
2011-12-22, 03:54:05,VALID,913.976,VALID,0,VALID,97.1833,VALID,0.107441,VALID,20.4228,VALID,99,VALID,0.8125,
2011-12-22, 03:55:05,VALID,913.958,VALID,0,VALID,97.1909,VALID,0.107441,VALID,20.4033,VALID,99,VALID,0.907031,